Location: Copeville
(33.0796°N, 96.4155°W)
Time: 02:05:34
(UTC+00:00)

Nadezhda 4 Rocket - Pass Details

Date: 02 July 2022
Orbit: 949 x 992 km, 82.9° (Epoch: 07 August)

Event Time Altitude Azimuth Distance (km) Brightness Sun altitude
Rises 10:28:10 0° 135° (SE) 3,654 7.1 -10.2°
Reaches altitude 10° 10:32:09 10° 110° (ESE) 2,702 6.8 -9.5°
Maximum altitude 10:34:55 13° 83° (E) 2,458 7.2 -9.0°
Drops below altitude 10° 10:37:41 10° 55° (NE) 2,696 8.1 -8.6°
Sets 10:41:37 0° 31° (NNE) 3,639 8.3 -7.9°
